Satellite: FCAL
Catalog number: 29667
Epoch time:      08101.64675791
Element set:     887
Inclination:      051.6260 deg
RA of node:       311.2837 deg
Eccentricity:    0.0004442
Arg of perigee:   096.9881 deg
Mean anomaly:     263.1427 deg
Mean motion:   16.11290291 rev/day
Decay rate:    1.27815e-03 rev/day^2
Epoch rev:            7566
Checksum:              319

Satellite: FALCON
Catalog number: 30776
Epoch time:      08101.68436906
Element set:     287
Inclination:      035.4336 deg
RA of node:       202.8702 deg
Eccentricity:    0.0000194
Arg of perigee:   290.6751 deg
Mean anomaly:     069.3944 deg
Mean motion:   15.02948032 rev/day
Decay rate:       5.40e-06 rev/day^2
Epoch rev:            5998
Checksum:              299

Satellite: MAST
Catalog number: 31126
Epoch time:      08100.74157255
Element set:    0301
Inclination:      098.0433 deg
RA of node:       167.8944 deg
Eccentricity:    0.0094820
Arg of perigee:   183.4669 deg
Mean anomaly:     176.5866 deg
Mean motion:   14.53414000 rev/day
Decay rate:       1.30e-06 rev/day^2
Epoch rev:           05207
Checksum:              276

Satellite: CAPE1
Catalog number: 31130
Epoch time:      08100.76134099
Element set:    0280
Inclination:      098.0418 deg
RA of node:       167.0778 deg
Eccentricity:    0.0102795
Arg of perigee:   185.8974 deg
Mean anomaly:     174.1018 deg
Mean motion:   14.51950312 rev/day
Decay rate:       4.41e-06 rev/day^2
Epoch rev:           05179
Checksum:              292

/EX





More information about the Keps mailing list